TimeAKST,TemperatureF,Dew PointF,Humidity,Sea Level PressureIn,VisibilityMPH,Wind Direction,Wind SpeedMPH,Gust SpeedMPH,PrecipitationIn,Events,Conditions,WindDirDegrees,DateUTC
12:16 AM,30.2,28.4,93,29.24,9.0,Calm,Calm,-,N/A,,Overcast,0,2013-01-07 09:16:00
12:36 AM,30.2,30.2,100,29.24,8.0,Calm,Calm,-,N/A,,Overcast,0,2013-01-07 09:36:00
12:56 AM,30.2,30.2,100,29.24,10.0,Calm,Calm,-,N/A,,Overcast,0,2013-01-07 09:56:00
1:16 AM,30.2,28.4,93,29.23,10.0,Calm,Calm,-,N/A,,Overcast,0,2013-01-07 10:16:00
1:36 AM,30.2,26.6,86,29.23,5.0,Calm,Calm,-,N/A,,Overcast,0,2013-01-07 10:36:00
1:56 AM,30.2,28.4,93,29.23,7.0,Calm,Calm,-,N/A,,Overcast,0,2013-01-07 10:56:00
2:16 AM,30.2,28.4,93,29.23,9.0,Calm,Calm,-,N/A,,Overcast,0,2013-01-07 11:16:00
2:36 AM,30.2,30.2,100,29.22,10.0,Calm,Calm,-,N/A,,Overcast,0,2013-01-07 11:36:00
2:56 AM,30.2,28.4,93,29.22,10.0,Calm,Calm,-,N/A,,Overcast,0,2013-01-07 11:56:00
3:16 AM,28.4,26.6,93,29.22,10.0,Calm,Calm,-,N/A,,Overcast,0,2013-01-07 12:16:00
3:36 AM,28.4,26.6,93,29.21,9.0,Calm,Calm,-,N/A,,Overcast,0,2013-01-07 12:36:00
3:56 AM,30.2,28.4,93,29.21,10.0,Calm,Calm,-,N/A,,Overcast,0,2013-01-07 12:56:00
4:16 AM,30.2,28.4,93,29.21,10.0,Calm,Calm,-,N/A,,Overcast,0,2013-01-07 13:16:00
4:56 AM,28.4,26.6,93,29.20,10.0,Calm,Calm,-,N/A,,Overcast,0,2013-01-07 13:56:00
5:16 AM,28.4,26.6,93,29.19,10.0,Calm,Calm,-,N/A,,Overcast,0,2013-01-07 14:16:00
5:36 AM,28.4,24.8,86,29.19,10.0,Calm,Calm,-,N/A,,Overcast,0,2013-01-07 14:36:00
5:56 AM,28.4,26.6,93,29.19,7.0,Calm,Calm,-,N/A,,Overcast,0,2013-01-07 14:56:00
6:16 AM,30.2,28.4,93,29.20,7.0,Calm,Calm,-,N/A,,Overcast,0,2013-01-07 15:16:00
6:36 AM,30.2,26.6,86,29.19,7.0,Calm,Calm,-,N/A,,Overcast,0,2013-01-07 15:36:00
6:56 AM,30.2,26.6,86,29.20,5.0,Calm,Calm,-,N/A,,Overcast,0,2013-01-07 15:56:00
7:16 AM,28.4,26.6,93,29.19,5.0,Calm,Calm,-,N/A,,Overcast,0,2013-01-07 16:16:00
7:36 AM,26.6,24.8,93,29.20,5.0,Calm,Calm,-,N/A,,Overcast,0,2013-01-07 16:36:00
7:56 AM,26.6,24.8,93,29.21,3.0,Calm,Calm,-,N/A,,Overcast,0,2013-01-07 16:56:00
8:16 AM,28.4,28.4,100,29.21,3.0,Calm,Calm,-,N/A,,Overcast,0,2013-01-07 17:16:00
8:36 AM,28.4,26.6,93,29.22,3.0,Calm,Calm,-,N/A,,Overcast,0,2013-01-07 17:36:00
8:56 AM,26.6,24.8,93,29.23,10.0,Calm,Calm,-,N/A,,Overcast,0,2013-01-07 17:56:00
9:16 AM,26.6,24.8,93,29.23,10.0,Calm,Calm,-,N/A,,Overcast,0,2013-01-07 18:16:00
9:36 AM,28.4,24.8,86,29.23,10.0,Calm,Calm,-,N/A,,Overcast,0,2013-01-07 18:36:00
10:16 AM,28.4,26.6,93,29.25,10.0,Calm,Calm,-,N/A,,Overcast,0,2013-01-07 19:16:00
10:36 AM,28.4,24.8,86,29.25,10.0,Calm,Calm,-,N/A,,Overcast,0,2013-01-07 19:36:00
10:56 AM,28.4,26.6,93,29.25,10.0,Calm,Calm,-,N/A,,Overcast,0,2013-01-07 19:56:00
11:36 AM,28.4,26.6,93,29.26,10.0,Calm,Calm,-,N/A,,Overcast,0,2013-01-07 20:36:00
11:56 AM,28.4,26.6,93,29.27,10.0,Calm,Calm,-,N/A,,Mostly Cloudy,0,2013-01-07 20:56:00
12:16 PM,28.4,24.8,86,29.27,10.0,Calm,Calm,-,N/A,,Mostly Cloudy,0,2013-01-07 21:16:00
12:36 PM,28.4,26.6,93,29.28,10.0,Calm,Calm,-,N/A,,Mostly Cloudy,0,2013-01-07 21:36:00
12:56 PM,28.4,26.6,93,29.27,10.0,Calm,Calm,-,N/A,,Overcast,0,2013-01-07 21:56:00
1:16 PM,28.4,26.6,93,29.27,10.0,Calm,Calm,-,N/A,,Overcast,0,2013-01-07 22:16:00
1:36 PM,28.4,26.6,93,29.27,10.0,Calm,Calm,-,N/A,,Overcast,0,2013-01-07 22:36:00
1:56 PM,30.2,26.6,86,29.28,10.0,Calm,Calm,-,N/A,,Mostly Cloudy,0,2013-01-07 22:56:00
2:36 PM,28.4,26.6,93,29.28,10.0,Calm,Calm,-,N/A,,Mostly Cloudy,0,2013-01-07 23:36:00
2:56 PM,28.4,26.6,93,29.29,10.0,Calm,Calm,-,N/A,,Mostly Cloudy,0,2013-01-07 23:56:00
3:16 PM,26.6,23.0,86,29.29,10.0,Calm,Calm,-,N/A,,Mostly Cloudy,0,2013-01-08 00:16:00
3:56 PM,26.6,24.8,93,29.30,10.0,Calm,Calm,-,N/A,,Mostly Cloudy,0,2013-01-08 00:56:00
4:16 PM,26.6,24.8,93,29.30,10.0,Calm,Calm,-,N/A,,Mostly Cloudy,0,2013-01-08 01:16:00
4:36 PM,26.6,24.8,93,29.30,10.0,Calm,Calm,-,N/A,,Mostly Cloudy,0,2013-01-08 01:36:00
4:56 PM,26.6,26.6,100,29.31,10.0,Calm,Calm,-,N/A,,Overcast,0,2013-01-08 01:56:00
5:16 PM,26.6,21.2,80,29.31,10.0,Calm,Calm,-,N/A,,Overcast,0,2013-01-08 02:16:00
5:36 PM,26.6,21.2,80,29.31,10.0,Calm,Calm,-,N/A,,Overcast,0,2013-01-08 02:36:00
5:56 PM,26.6,19.4,74,29.31,10.0,Calm,Calm,-,N/A,,Overcast,0,2013-01-08 02:56:00
6:16 PM,26.6,23.0,86,29.31,10.0,Calm,Calm,-,N/A,,Overcast,0,2013-01-08 03:16:00
6:36 PM,24.8,21.2,86,29.32,10.0,Calm,Calm,-,N/A,,Overcast,0,2013-01-08 03:36:00
6:56 PM,26.6,26.6,100,29.33,10.0,Calm,Calm,-,N/A,,Mostly Cloudy,0,2013-01-08 03:56:00
7:16 PM,26.6,24.8,93,29.33,10.0,Calm,Calm,-,N/A,,Mostly Cloudy,0,2013-01-08 04:16:00
7:36 PM,26.6,24.8,93,29.33,10.0,Calm,Calm,-,N/A,,Mostly Cloudy,0,2013-01-08 04:36:00
7:56 PM,30.2,24.8,80,29.33,10.0,Calm,Calm,-,N/A,,Mostly Cloudy,0,2013-01-08 04:56:00
8:16 PM,28.4,24.8,86,29.34,10.0,Calm,Calm,-,N/A,,Mostly Cloudy,0,2013-01-08 05:16:00
8:36 PM,28.4,24.8,86,29.35,10.0,Calm,Calm,-,N/A,,Mostly Cloudy,0,2013-01-08 05:36:00
8:56 PM,28.4,23.0,80,29.35,10.0,Calm,Calm,-,N/A,,Mostly Cloudy,0,2013-01-08 05:56:00
9:16 PM,26.6,24.8,93,29.36,10.0,Calm,Calm,-,N/A,,Mostly Cloudy,0,2013-01-08 06:16:00
9:36 PM,28.4,26.6,93,29.36,10.0,Calm,Calm,-,N/A,,Mostly Cloudy,0,2013-01-08 06:36:00
9:56 PM,28.4,24.8,86,29.37,10.0,Calm,Calm,-,N/A,,Overcast,0,2013-01-08 06:56:00
10:16 PM,28.4,24.8,86,29.37,10.0,Calm,Calm,-,N/A,,Overcast,0,2013-01-08 07:16:00
10:36 PM,28.4,26.6,93,29.38,10.0,Calm,Calm,-,N/A,,Overcast,0,2013-01-08 07:36:00
10:56 PM,30.2,28.4,93,29.38,10.0,Calm,Calm,-,N/A,,Overcast,0,2013-01-08 07:56:00
11:16 PM,30.2,26.6,86,29.39,10.0,Calm,Calm,-,N/A,,Overcast,0,2013-01-08 08:16:00
11:36 PM,30.2,26.6,86,29.40,10.0,Calm,Calm,-,N/A,,Overcast,0,2013-01-08 08:36:00
11:56 PM,28.4,24.8,86,29.40,10.0,Calm,Calm,-,N/A,,Overcast,0,2013-01-08 08:56:00